| time (UTC) | temp F | wind direction | speed knots | gust knots | rain 1hr in | rain 24hr in | rain mn in | humidity % | barometer mb |
| 20260507011528 | 62 | 324 | 0.0 | 0.9 | 0.00 | 0.09 | 0.09 | 86 | 1011.1 |
| 20260507010023 | 62 | 34 | 0.0 | 3.5 | 0.00 | 0.09 | 0.09 | 85 | 1010.9 |
| 20260507004523 | 62 | 285 | 0.9 | 4.3 | 0.00 | 0.09 | 0.09 | 85 | 1010.7 |
| 20260507003019 | 62 | 301 | 0.0 | 5.2 | 0.00 | 0.09 | 0.09 | 85 | 1010.7 |
| 20260507001524 | 63 | 336 | 0.0 | 3.5 | 0.00 | 0.09 | 0.09 | 85 | 1010.4 |
| 20260507000022 | 63 | 334 | 0.9 | 4.3 | 0.00 | 0.09 | 0.09 | 84 | 1010.3 |
| 20260506234515 | 63 | 7 | 0.9 | 5.2 | 0.00 | 0.09 | 0.09 | 84 | 1009.9 |
| 20260506233011 | 64 | 324 | 1.7 | 6.1 | 0.00 | 0.09 | 0.09 | 83 | 1010.0 |
| 20260506231507 | 65 | 7 | 1.7 | 7.8 | 0.00 | 0.09 | 0.09 | 81 | 1010.0 |
| 20260506230004 | 65 | 302 | 0.9 | 4.3 | 0.00 | 0.09 | 0.09 | 81 | 1009.7 |
| 20260506224503 | 66 | 291 | 1.7 | 6.1 | 0.00 | 0.09 | 0.09 | 79 | 1009.4 |
| 20260506223001 | 67 | 319 | 0.9 | 8.7 | 0.00 | 0.09 | 0.09 | 79 | 1009.4 |
| 20260506221600 | 67 | 35 | 3.5 | 12.2 | 0.00 | 0.09 | 0.09 | 78 | 1009.4 |
| 20260506220100 | 67 | 347 | 2.6 | 10.4 | 0.00 | 0.09 | 0.09 | 78 | 1009.1 |
| 20260506214557 | 68 | 336 | 1.7 | 7.0 | 0.00 | 0.09 | 0.09 | 77 | 1009.1 |
| 20260506213113 | 69 | 353 | 0.9 | 6.1 | 0.00 | 0.09 | 0.09 | 78 | 1009.0 |
| 20260506211556 | 70 | 335 | 2.6 | 12.2 | 0.00 | 0.09 | 0.09 | 76 | 1009.3 |
| 20260506210057 | 74 | 347 | 3.5 | 10.4 | 0.00 | 0.09 | 0.09 | 69 | 1008.9 |
| 20260506204554 | 77 | 297 | 2.6 | 7.8 | 0.00 | 0.09 | 0.09 | 70 | 1008.7 |
| 20260506203053 | 78 | 308 | 5.2 | 11.3 | 0.00 | 0.09 | 0.09 | 68 | 1008.7 |
| 20260506201552 | 78 | 266 | 1.7 | 10.4 | 0.00 | 0.09 | 0.09 | 74 | 1008.7 |
| 20260506200051 | 79 | 258 | 1.7 | 7.0 | 0.00 | 0.09 | 0.09 | 73 | 1008.6 |
| 20260506194555 | 77 | 322 | 1.7 | 9.6 | 0.00 | 0.09 | 0.09 | 76 | 1008.7 |
| 20260506193057 | 77 | 287 | 2.6 | 9.6 | 0.00 | 0.09 | 0.09 | 76 | 1008.7 |
| 20260506191548 | 78 | 343 | 3.5 | 7.8 | 0.00 | 0.09 | 0.09 | 77 | 1008.7 |
| 20260506190050 | 80 | 267 | 1.7 | 4.3 | 0.00 | 0.09 | 0.09 | 75 | 1008.6 |
| 20260506184544 | 79 | 224 | 0.9 | 4.3 | 0.00 | 0.09 | 0.09 | 79 | 1008.8 |
| 20260506183042 | 78 | 265 | 1.7 | 4.3 | 0.00 | 0.09 | 0.09 | 85 | 1009.1 |
| 20260506181539 | 75 | 355 | 0.9 | 4.3 | 0.00 | 0.09 | 0.09 | 85 | 1009.3 |
| 20260506180048 | 74 | 282 | 2.6 | 4.3 | 0.00 | 0.09 | 0.09 | 90 | 1009.3 |
| 20260506174542 | 73 | 196 | 0.0 | 2.6 | 0.00 | 0.09 | 0.09 | 92 | 1009.4 |
| 20260506173039 | 72 | 258 | 1.7 | 4.3 | 0.00 | 0.09 | 0.09 | 91 | 1009.6 |
| 20260506171537 | 71 | 242 | 0.0 | 3.5 | 0.00 | 0.09 | 0.09 | 94 | 1009.3 |
| 20260506170038 | 71 | 262 | 0.9 | 2.6 | 0.06 | 0.09 | 0.09 | 96 | 1009.3 |
| 20260506164536 | 68 | 120 | 0.9 | 2.6 | 0.09 | 0.09 | 0.09 | 94 | 1009.5 |
| 20260506163055 | 67 | 321 | 0.9 | 5.2 | 0.09 | 0.09 | 0.09 | 93 | 1009.3 |
| 20260506161534 | 68 | 286 | 0.0 | 6.1 | 0.09 | 0.09 | 0.09 | 91 | 1009.4 |
| 20260506160030 | 71 | 351 | 0.9 | 6.1 | 0.03 | 0.03 | 0.03 | 83 | 1009.5 |
| 20260506154526 | 77 | 42 | 0.0 | 4.3 | 0.00 | 0.00 | 0.00 | 85 | 1008.9 |
| 20260506153024 | 77 | 109 | 0.0 | 4.3 | 0.00 | 0.00 | 0.00 | 85 | 1008.8 |
| 20260506151521 | 75 | 114 | 0.0 | 3.5 | 0.00 | 0.00 | 0.00 | 89 | 1008.6 |
| 20260506150022 | 74 | 68 | 0.9 | 2.6 | 0.00 | 0.00 | 0.00 | 91 | 1008.4 |
| 20260506144523 | 74 | 80 | 0.9 | 3.5 | 0.00 | 0.00 | 0.00 | 93 | 1008.2 |
| 20260506143019 | 73 | 81 | 0.9 | 5.2 | 0.00 | 0.00 | 0.00 | 94 | 1008.3 |
| 20260506141517 | 73 | 83 | 0.9 | 2.6 | 0.00 | 0.00 | 0.00 | 94 | 1008.2 |
| 20260506140015 | 73 | 59 | 0.9 | 3.5 | 0.00 | 0.00 | 0.00 | 95 | 1008.2 |
| 20260506134513 | 72 | 81 | 0.0 | 4.3 | 0.00 | 0.00 | 0.00 | 95 | 1007.9 |
| 20260506133011 | 72 | 100 | 0.9 | 3.5 | 0.00 | 0.00 | 0.00 | 95 | 1007.0 |
| 20260506131513 | 72 | 88 | 0.0 | 3.5 | 0.00 | 0.00 | 0.00 | 96 | 1006.9 |
| 20260506130007 | 72 | 94 | 0.0 | 2.6 | 0.00 | 0.00 | 0.00 | 96 | 1006.8 |
| 20260506124506 | 72 | 82 | 0.0 | 1.7 | 0.00 | 0.00 | 0.00 | 95 | 1006.6 |
| 20260506123006 | 72 | 94 | 0.0 | 2.6 | 0.00 | 0.00 | 0.00 | 95 | 1006.5 |
| 20260506121505 | 72 | 101 | 0.9 | 2.6 | 0.00 | 0.00 | 0.00 | 95 | 1006.4 |
| 20260506120006 | 72 | 155 | 0.0 | 0.9 | 0.00 | 0.00 | 0.00 | 95 | 1006.4 |
| 20260506114504 | 72 | 155 | 0.0 | 0.0 | 0.00 | 0.00 | 0.00 | 95 | 1006.5 |
| 20260506113003 | 72 | 82 | 0.0 | 2.6 | 0.00 | 0.00 | 0.00 | 95 | 1006.3 |
| 20260506111502 | 72 | 64 | 1.7 | 2.6 | 0.00 | 0.00 | 0.00 | 95 | 1006.5 |
| 20260506110001 | 72 | 104 | 0.0 | 1.7 | 0.00 | 0.00 | 0.00 | 95 | 1006.7 |
| 20260506104603 | 72 | 125 | 0.0 | 1.7 | 0.00 | 0.00 | 0.00 | 95 | 1006.7 |
| 20260506103100 | 72 | 195 | 0.9 | 2.6 | 0.00 | 0.00 | 0.00 | 95 | 1006.7 |
| 20260506101605 | 72 | 111 | 0.0 | 4.3 | 0.00 | 0.00 | 0.00 | 95 | 1006.6 |
| 20260506100058 | 72 | 135 | 0.9 | 4.3 | 0.00 | 0.00 | 0.00 | 95 | 1006.4 |
| 20260506094621 | 72 | 126 | 0.9 | 3.5 | 0.00 | 0.00 | 0.00 | 94 | 1006.5 |
| 20260506093056 | 72 | 98 | 0.9 | 5.2 | 0.00 | 0.00 | 0.00 | 94 | 1006.4 |
| 20260506091553 | 73 | 126 | 0.0 | 2.6 | 0.00 | 0.00 | 0.00 | 94 | 1006.3 |
| 20260506090051 | 73 | 169 | 0.0 | 4.3 | 0.00 | 0.00 | 0.00 | 93 | 1006.1 |
| 20260506084550 | 73 | 172 | 1.7 | 5.2 | 0.00 | 0.00 | 0.00 | 92 | 1006.0 |
| 20260506083048 | 73 | 177 | 2.6 | 6.1 | 0.00 | 0.00 | 0.00 | 92 | 1006.0 |
| 20260506081546 | 73 | 192 | 2.6 | 7.0 | 0.00 | 0.00 | 0.00 | 91 | 1006.0 |
| 20260506073045 | 74 | 114 | 0.9 | 4.3 | 0.00 | 0.00 | 0.00 | 90 | 1006.2 |
| 20260506071540 | 74 | 142 | 1.7 | 4.3 | 0.00 | 0.00 | 0.00 | 89 | 1006.4 |
| 20260506061536 | 75 | 152 | 0.9 | 6.1 | 0.00 | 0.00 | 0.00 | 89 | 1006.8 |
| 20260506044538 | 75 | 102 | 2.6 | 6.1 | 0.00 | 0.00 | 0.00 | 88 | 1006.6 |
| 20260506043027 | 74 | 85 | 1.7 | 5.2 | 0.00 | 0.00 | 0.00 | 88 | 1006.6 |
| 20260506041527 | 75 | 76 | 2.6 | 5.2 | 0.00 | 0.00 | 0.00 | 87 | 1006.4 |
| 20260506040048 | 75 | 97 | 0.9 | 5.2 | 0.00 | 0.00 | 0.00 | 86 | 1006.2 |
| 20260506034525 | 74 | 104 | 0.9 | 3.5 | 0.00 | 0.00 | 0.00 | 87 | 1006.1 |
| 20260506033024 | 75 | 89 | 0.0 | 0.9 | 0.00 | 0.00 | 0.00 | 85 | 1006.0 |
| 20260506031538 | 75 | 88 | 0.0 | 0.9 | 0.00 | 0.00 | 0.00 | 84 | 1005.9 |
| 20260506030023 | 76 | 91 | 0.9 | 2.6 | 0.00 | 0.00 | 0.00 | 83 | 1005.7 |
| 20260506024522 | 76 | 82 | 0.9 | 3.5 | 0.00 | 0.00 | 0.00 | 82 | 1005.5 |
| 20260506023021 | 76 | 114 | 0.0 | 0.0 | 0.00 | 0.00 | 0.00 | 81 | 1005.3 |
| 20260506021520 | 77 | 106 | 0.0 | 2.6 | 0.00 | 0.00 | 0.00 | 80 | 1004.9 |
| 20260506020019 | 77 | 107 | 0.0 | 1.7 | 0.00 | 0.00 | 0.00 | 78 | 1004.7 |
| 20260506014518 | 78 | 92 | 0.0 | 2.6 | 0.00 | 0.00 | 0.00 | 77 | 1004.4 |
| 20260506013018 | 79 | 128 | 0.9 | 3.5 | 0.00 | 0.00 | 0.00 | 75 | 1004.1 |